User: anonymous   Login
Location: Unspecified
(0.0000°N, 0.0000°E)
Time: 20:08:14
(UTC+00:00)
Language:

Nadezhda 4 - Orbit

View from above orbital plane
View from above orbital plane
View from above satellite
View from above satellite

Ground track
Ground track

The orbit data is extracted from the following two-line orbital elements,

1 23179U 94041A   19340.60830402 +.00000015 +00000-0 +52620-6 0  9997
2 23179 082.9454 357.4605 0033878 281.3664 195.3218 13.76558222275649
Epoch (UTC): 06 December 2019 14:35:57
Eccentricity: 0.0033878
inclination: 82.9454°
perigee height: 951 km
apogee height: 1001 km
right ascension of ascending node: 357.4605°
argument of perigee: 281.3664°
revolutions per day: 13.76558222
mean anomaly at epoch: 195.3218°
orbit number at epoch: 27564

The dashed part of the orbit path shows where the satellite is in the earth's shadow,  

DLR